Tampa, FL

4:29 AM EST on February 11, 2016 (GMT -0500)
MacDill Air Force Base

Weather History for KMCF - January, 2014

Change the Weather History Date:

Wednesday, January 15, 2014

  Actual Average Record
Temperature  
Mean Temperature 58 °F -  
Max Temperature 65 °F 67 °F 82 °F (2013)
Min Temperature 50 °F 48 °F 34 °F (2012)
Degree Days  
Heating Degree Days 8    
Growing Degree Days 8 (Base 50)    
Moisture  
Dew Point 51 °F    
Average Humidity 80    
Maximum Humidity 95    
Minimum Humidity 48    
Precipitation  
Precipitation 0.04 in - - ()
Sea Level Pressure  
Sea Level Pressure 30.02 in    
Wind  
Wind Speed 6 mph (NW)    
Max Wind Speed 14 mph    
Max Gust Speed 23 mph    
Visibility 10 miles    
Events Rain    
Averages and records for this station are not official NWS values.
T = Trace of Precipitation, MM = Missing Value Source: NWS Daily Summary

Daily Weather History Graph

Daily Weather History Graph

Search for Another Location

Airport or City:

Trip Planner

Search our weather history database for the weather conditions in past years. The results will help you decide how hot, cold, wet, or windy it might be!

Date:

Astronomy

Jan. 15, 2014 Rise Set
Actual Time 7:22 AM EST 5:56 PM EST
Civil Twilight 6:57 AM EST 6:22 PM EST
Nautical Twilight 6:28 AM EST 6:50 PM EST
Astronomical Twilight 6:00 AM EST 7:19 PM EST
Moon 5:48 PM EST (1/15) 6:41 AM EST (1/15)
Length of Visible Light 11h 25m
Length of Day
10h 34m
Full, 100% of the Moon is Illuminated
Jan 15
Full
Jan 15
Full
Jan 24
Last Quarter
Jan 30
New
Feb 6
First Quarter

Hourly Weather History & Observations

Time (EST) Temp. Dew Point Humidity Pressure Visibility Wind Dir Wind Speed Gust Speed Precip Events Conditions
12:58 AM 54.0 °F 52.7 °F 95% 30.03 in 10.0 mi WNW 3.5 mph - N/A   Mostly Cloudy
1:58 AM 53.6 °F 52.3 °F 95% 30.02 in 10.0 mi WNW 2.3 mph - N/A   Clear
2:58 AM 54.0 °F 52.7 °F 95% 30.02 in 10.0 mi Variable 6.9 mph - N/A   Clear
3:58 AM 55.9 °F 54.0 °F 93% 30.02 in 10.0 mi NNW 5.8 mph - N/A   Clear
4:58 AM 54.3 °F 52.3 °F 93% 30.02 in 10.0 mi NNW 4.6 mph - N/A   Clear
5:58 AM 52.9 °F 51.3 °F 94% 30.02 in 10.0 mi Variable 5.8 mph - N/A   Clear
6:58 AM 52.3 °F 49.8 °F 91% 30.04 in 10.0 mi North 5.8 mph - N/A   Clear
7:58 AM 50.9 °F 48.4 °F 91% 30.06 in 10.0 mi North 4.6 mph - N/A   Clear
8:58 AM 60.1 °F 50.5 °F 71% 30.09 in 10.0 mi North 5.8 mph - N/A   Clear
9:58 AM 61.9 °F 50.7 °F 67% 30.10 in 10.0 mi Variable 4.6 mph - N/A   Clear
10:58 AM 61.0 °F 50.4 °F 68% 30.10 in 10.0 mi Variable 4.6 mph - N/A   Mostly Cloudy
11:58 AM 62.2 °F 50.0 °F 64% 30.07 in 10.0 mi NNW 8.1 mph - N/A   Scattered Clouds
12:58 PM 64.8 °F 44.4 °F 48% 30.04 in 10.0 mi NNW 6.9 mph - N/A   Scattered Clouds
1:58 PM 65.8 °F 49.5 °F 55% 30.03 in 10.0 mi North 8.1 mph - N/A   Partly Cloudy
2:58 PM 64.6 °F 48.9 °F 57% 29.99 in 10.0 mi North 8.1 mph - N/A   Partly Cloudy
3:58 PM 62.8 °F 49.8 °F 63% 30.00 in 10.0 mi NNW 5.8 mph - N/A   Clear
4:58 PM 61.2 °F 51.3 °F 70% 30.00 in 10.0 mi North 4.6 mph - N/A   Clear
5:58 PM 59.0 °F 50.5 °F 73% 29.99 in 10.0 mi NNW 2.3 mph - N/A   Overcast
6:58 PM 55.8 °F 48.7 °F 77% 30.00 in 10.0 mi West 3.5 mph - N/A   Mostly Cloudy
7:58 PM 56.8 °F 52.3 °F 85% 29.99 in 10.0 mi SSW 3.5 mph - N/A   Mostly Cloudy
8:58 PM 57.2 °F 53.6 °F 88% 30.01 in 10.0 mi South 4.6 mph - N/A   Partly Cloudy
9:58 PM 58.3 °F 54.5 °F 87% 30.00 in 10.0 mi South 6.9 mph - N/A   Partly Cloudy
10:25 PM 59.0 °F 53.6 °F 82% 29.98 in 10.0 mi WSW 4.6 mph - N/A Rain Light Rain
10:40 PM 57.2 °F 53.6 °F 88% 29.99 in 6.0 mi NW 12.7 mph 18.4 mph N/A Rain Light Rain
10:45 PM 57.2 °F 53.6 °F 88% 30.00 in 9.0 mi WNW 13.8 mph 23.0 mph N/A Rain Light Rain
10:52 PM 55.4 °F 53.6 °F 94% 30.00 in 10.0 mi WNW 12.7 mph 23.0 mph N/A   Overcast
10:58 PM 55.8 °F 54.1 °F 94% 30.01 in 10.0 mi NW 11.5 mph 18.4 mph 0.04 in   Overcast
11:58 PM 55.9 °F 51.8 °F 86% 30.01 in 10.0 mi NW 8.1 mph - N/A   Overcast